Flag for Tunisia Weather past 2 weeks in Sfax, Tunisia

Now
81 °F

Passing clouds.


Feels Like: 79 °F
Forecast: 57 / 73 °F
Wind: 9 mph from Northwest

Location: Sfax El-Maou

Current Time: May 22, 2015 at 4:20:04 PM

Latest Report: May 22, 2015 at 4:00 PM


Visibility: N/A

Pressure: 30.01 "Hg

Humidity: 21%

Dew point: 37 °F

Location of SfaxLocation

Historic Weather in Sfax — Graph

°F

Sfax temperature yesterday

Maximum temperature yesterday: 79 °F (at 2:00 PM)
Minimum temperature yesterday: 64 °F (at 10:00 PM)
Average temperature yesterday: 72 °F

Past Weeks' High & Low Weather Summary

 TemperatureHumidityPressure
High95 °F (May 15, 12:00 PM)88% (May 19, 4:00 AM)30.27 "Hg (May 19, 4:00 AM)
Low59 °F (May 13, 4:00 AM)13% (May 15, 10:00 AM)29.77 "Hg (May 19, 6:00 PM)
Average74 °F47%30.01 "Hg
* Reported May 7 3:00 PM — May 22 3:00 PM, Sfax, Weather by CustomWeather, © 2015

Note: Actual official high and low records may vary slightly from our data, if they occured in-between our weather recording intervals... More about our weather records

Advertising

Sfax weather history for previous 24 hours

 ConditionsComfort  
Time TempWeatherWind HumidityBarometerVisibility
3:00 PM
Fri, May 22
81 °FPassing clouds.13 mph21%30.01 "HgN/A
2:00 PM77 °FPassing clouds.15 mph22%30.01 "HgN/A
1:00 PM77 °FPassing clouds.13 mph26%30.01 "HgN/A
12:00 PM75 °FSunny.13 mph27%30.04 "Hg10 mi
11:00 AM73 °FPassing clouds.12 mph27%30.07 "HgN/A
10:00 AM70 °FPassing clouds.17 mph31%30.07 "HgN/A
9:00 AM68 °FPassing clouds.17 mph33%30.07 "HgN/A
8:00 AM64 °FPassing clouds.16 mph40%30.07 "HgN/A
7:00 AM63 °FPassing clouds.16 mph42%30.04 "HgN/A
6:00 AM59 °FPassing clouds.14 mph51%30.04 "HgN/A
5:00 AM59 °FPassing clouds.17 mph51%30.04 "HgN/A
4:00 AM59 °FClear.14 mph51%30.04 "Hg10 mi
2:00 AM61 °FPassing clouds.23 mph52%30.04 "HgN/A
12:00 AM63 °FPassing clouds.18 mph49%30.07 "HgN/A
11:00 PM
Thu, May 21
64 °FPassing clouds.18 mph46%30.07 "HgN/A
10:00 PM64 °FPassing clouds.18 mph49%30.04 "HgN/A
9:00 PM66 °FPassing clouds.23 mph43%30.01 "HgN/A
8:00 PM68 °FPassing clouds.20 mph38%29.98 "HgN/A
7:00 PM70 °FScattered clouds.26 mph33%29.98 "HgN/A
6:00 PM73 °FSunny.24 mph36%29.95 "Hg10 mi
5:00 PM73 °FPassing clouds.25 mph38%29.92 "HgN/A
4:00 PM75 °FPassing clouds.28 mph34%29.92 "HgN/A
Weather by CustomWeather, © 2015

See weather overviewHow to use our weather pages